This is the latest recevied weather packets stored in our database for station/object KB9PMA-1. If no packets are shown the sender has not sent any weather packets the latest 10 day(s).
| Time | Temp. | Humidity | Pressure | Rain* | Wind** | Luminosity | Snow |
|---|---|---|---|---|---|---|---|
| 1778026076 | 8.89° C | 96% | 1010 hPa | 2.54 mm | - | - | - |
| 1778025776 | 8.89° C | 95% | 1010.2 hPa | 2.29 mm | - | - | - |
| 1778025476 | 8.89° C | 95% | 1010.1 hPa | 2.03 mm | - | - | - |
| 1778025176 | 8.89° C | 95% | 1010.1 hPa | 1.78 mm | - | - | - |
| 1778024876 | 8.89° C | 95% | 1010.1 hPa | 1.78 mm | - | - | - |
| 1778024576 | 8.89° C | 95% | 1010.3 hPa | 1.78 mm | - | - | - |
| 1778024276 | 8.33° C | 95% | 1010.3 hPa | 1.52 mm | - | - | - |
| 1778023976 | 8.33° C | 95% | 1010.2 hPa | 1.52 mm | - | - | - |
| 1778023676 | 8.89° C | 95% | 1010.1 hPa | 1.52 mm | - | - | - |
| 1778023376 | 8.33° C | 95% | 1010.2 hPa | 1.27 mm | - | - | - |
| 1778023076 | 8.33° C | 95% | 1010.3 hPa | 1.27 mm | - | - | - |
| 1778022776 | 8.33° C | 95% | 1010.6 hPa | 1.52 mm | - | - | - |
| 1778022476 | 8.33° C | 95% | 1010.6 hPa | 1.27 mm | - | - | - |
| 1778022176 | 8.33° C | 95% | 1010.6 hPa | 1.52 mm | - | - | - |
| 1778021876 | 8.89° C | 95% | 1010.6 hPa | 1.78 mm | - | - | - |
| 1778021576 | 8.89° C | 95% | 1010.6 hPa | 1.78 mm | - | - | - |
| 1778021276 | 8.89° C | 95% | 1010.6 hPa | 1.78 mm | - | - | - |
| 1778020976 | 8.89° C | 95% | 1010.6 hPa | 1.52 mm | - | - | - |
| 1778020676 | 8.89° C | 95% | 1010.7 hPa | 1.78 mm | - | - | - |
| 1778020428 | 8.89° C | 95% | 1010.7 hPa | 1.52 mm | - | - | - |
| 1778020378 | 8.89° C | 95% | 1010.7 hPa | 1.52 mm | - | - | - |
| 1778020076 | 8.89° C | 95% | 1010.5 hPa | 1.52 mm | - | - | - |
| 1778019776 | 8.89° C | 95% | 1010.6 hPa | 1.78 mm | - | - | - |
| 1778019476 | 8.89° C | 95% | 1010.7 hPa | 1.52 mm | - | - | - |
| 1778019176 | 8.89° C | 95% | 1010.7 hPa | 1.27 mm | - | - | - |
* Rain latest hour (hover to see other rain measurements)
** Current wind speed in m/s (hover to see current wind gust speed)